Simultaneous Nadir Overpasses (SNOs) Predictions

Prediction of SNOs between METOP-A and NOAA-19 Satellite Orbit:

Table of predicted SNOs for the next 14.0 days since TLE Epoch: 11/10/2018
Index Date (METOP-A) Time (METOP-A) Lat,Lon (METOP-A) SZA (METOP-A ) Date (NOAA-19) Time (NOAA-19) Lat,Lon (NOAA-19) SZA (NOAA-19 ) Distance(km) Time Diff (sec)
1 11/10/2018 05:45:56 79.04, 103.51 96.42 11/10/2018 05:45:35 79.06, 103.45 96.44 2.97 21
2 11/10/2018 06:36:37 -79.04, -89.18 83.58 11/10/2018 06:36:36 -79.05, -89.22 83.56 2.04 1
3 11/10/2018 07:27:17 79.05, 78.27 96.46 11/10/2018 07:27:35 79.03, 78.22 96.44 2.87 18
4 11/10/2018 08:17:58 -79.05,-114.42 83.54 11/10/2018 08:18:36 -79.02,-114.46 83.56 3.51 38
5 11/10/2018 09:08:39 79.03, 52.78 96.45 11/10/2018 09:09:36 79.03, 52.72 96.46 1.37 57
6 11/10/2018 09:59:23 -78.92,-140.63 83.69 11/10/2018 10:00:35 -78.95,-139.44 83.58 25.77 72
7 11/21/2018 00:13:21 79.26,-171.94 99.40 11/21/2018 00:12:13 79.30,-174.79 99.31 59.12 68
8 11/21/2018 01:04:07 -79.09, -5.81 80.82 11/21/2018 01:03:05 -79.09, -5.75 80.83 1.16 62
9 11/21/2018 01:54:47 79.09, 161.55 99.20 11/21/2018 01:54:07 79.08, 161.58 99.18 1.85 40
10 11/21/2018 02:45:29 -79.07, -31.29 80.83 11/21/2018 02:45:06 -79.09, -31.25 80.81 2.43 23
11 11/21/2018 03:36:09 79.07, 136.07 99.19 11/21/2018 03:36:08 79.08, 136.08 99.19 0.67 1
12 11/21/2018 04:26:50 -79.08, -56.53 80.80 11/21/2018 04:27:06 -79.06, -56.49 80.82 3.08 16
13 11/21/2018 05:17:31 79.05, 110.58 99.18 11/21/2018 05:18:09 79.08, 110.59 99.21 2.90 38
14 11/21/2018 06:08:12 -79.06, -82.01 80.81 11/21/2018 06:09:07 -79.06, -81.99 80.80 0.77 55




NCC Satellite Simultaneous Nadir Overpasses (SNOs) Prediction Service
